This is the latest recevied weather packets stored in our database for station/object IONIA-WX. If no packets are shown the sender has not sent any weather packets the latest 10 day(s).
| Time | Temp. | Humidity | Pressure | Rain* | Wind** | Luminosity | Snow |
|---|---|---|---|---|---|---|---|
| 1788151523 | 21.11° C | 80% | 986.4 hPa | 0 mm | - | - | - |
| 1788150622 | 21.11° C | 82% | 986 hPa | 0 mm | - | - | - |
| 1788149716 | 21.11° C | 82% | 986 hPa | 0 mm | - | - | - |
| 1788148832 | 21.11° C | 82% | 986 hPa | 0 mm | - | - | - |
| 1788147917 | 21.11° C | 80% | 985 hPa | 0 mm | - | - | - |
| 1788147022 | 21.67° C | 80% | 985.4 hPa | 0 mm | - | - | - |
| 1788146122 | 21.67° C | 80% | 985.4 hPa | 0 mm | - | - | - |
| 1788145222 | 21.67° C | 80% | 985.4 hPa | 0 mm | - | - | - |
| 1788144321 | 21.67° C | 78% | 985.6 hPa | 0 mm | - | - | - |
| 1788143422 | 22.22° C | 81% | 985.7 hPa | 0 mm | - | - | - |
| 1788142521 | 22.22° C | 81% | 985.7 hPa | 0 mm | - | - | - |
| 1788141622 | 22.22° C | 81% | 985.7 hPa | 0 mm | - | - | - |
| 1788140722 | 22.78° C | 77% | 985 hPa | 0 mm | - | - | - |
| 1788139821 | 22.78° C | 77% | 985 hPa | 0 mm | - | - | - |
| 1788138017 | 22.78° C | 77% | 985 hPa | 0 mm | - | - | - |
| 1788137121 | 23.33° C | 72% | 984.9 hPa | 0 mm | - | - | - |
| 1788136221 | 23.89° C | 72% | 985.3 hPa | 0 mm | - | - | - |
| 1788135322 | 24.44° C | 72% | 985.3 hPa | 0 mm | - | - | - |
| 1788134424 | 24.44° C | 72% | 985.3 hPa | 0 mm | - | - | - |
| 1788133521 | 25° C | 63% | 985.4 hPa | 0 mm | - | - | - |
| 1788132622 | 25° C | 63% | 985.3 hPa | 0 mm | - | - | - |
| 1788131718 | 25.56° C | 63% | 985.3 hPa | 0 mm | - | - | - |
| 1788130822 | 26.11° C | 63% | 985.3 hPa | 0 mm | - | - | - |
| 1788129921 | 26.67° C | 56% | 986.3 hPa | 0 mm | - | - | - |
| 1788129022 | 26.11° C | 65% | 986.2 hPa | 0 mm | - | - | - |
* Rain latest hour (hover to see other rain measurements)
** Current wind speed in m/s (hover to see current wind gust speed)